Location: Mountain Grove
(34.0887°N, 86.6172°W)
Time: 14:58:08
(UTC+00:00)

Nadezhda 1 Rocket - Pass Details

Date: 14 July 2020
Orbit: 941 x 1005 km, 83.0° (Epoch: 13 August)

Event Time Altitude Azimuth Distance (km) Brightness Sun altitude
Rises 01:28:43 0° 356° (N) 3,736 7.6 -6.2°
Reaches altitude 10° 01:31:18 10° 359° (N) 2,779 6.9 -6.6°
Maximum altitude 01:37:40 70° 83° (E) 1,055 4.1 -7.7°
Drops below altitude 10° 01:43:55 10° 166° (SSE) 2,731 5.9 -8.8°
Sets 01:46:25 0° 169° (S) 3,666 6.6 -9.3°
